DW4714 Weather Reports


time (UTC)temp
F
wind
direction
speed
knots
gust
knots
rain 1hr
in
rain 24hr
in
rain mn
in
humidity
%
barometer
mb
20260506044817 66 180 0.9 2.6 0.00 0.01 0.00 44 1005.8
20260506043736 66 227 0.0 0.0 0.00 0.01 0.00 44 1005.8
20260506042717 66 208 0.0 0.0 0.00 0.01 0.00 44 1005.8
20260506041757 67 248 0.0 2.6 0.00 0.01 0.00 43 1005.8
20260506040717 67 193 0.0 0.0 0.00 0.01 0.00 42 1005.7
20260506035717 67 191 0.0 0.0 0.00 0.01 0.01 41 1005.7
20260506034717 68 203 0.0 2.6 0.00 0.01 0.01 41 1005.7
20260506033717 69 203 0.9 2.6 0.00 0.01 0.01 39 1005.8
20260506032717 69 248 0.0 1.7 0.00 0.01 0.01 38 1005.7
20260506031717 70 203 0.0 2.6 0.00 0.01 0.01 37 1005.6
20260506030717 70 171 0.0 0.0 0.00 0.01 0.01 37 1005.5
20260506025717 70 192 0.0 0.0 0.00 0.01 0.01 37 1005.5
20260506024717 70 248 0.0 1.7 0.00 0.01 0.01 36 1005.4
20260506023717 71 178 0.0 0.0 0.00 0.01 0.01 35 1005.5
20260506022722 71 175 0.0 0.0 0.00 0.01 0.01 34 1005.6
20260506021737 71 203 2.6 6.1 0.00 0.01 0.01 34 1005.4
20260506020737 72 180 1.7 4.3 0.00 0.01 0.01 33 1005.4
20260506015717 72 180 0.9 3.5 0.00 0.01 0.01 32 1005.3
20260506014717 72 158 1.7 6.1 0.00 0.01 0.01 32 1005.3
20260506013737 72 176 0.0 0.0 0.00 0.01 0.01 32 1005.1
20260506012717 72 180 0.0 2.6 0.00 0.01 0.01 33 1005.1
20260506011717 72 193 0.0 0.0 0.00 0.01 0.01 32 1004.9
20260506010717 73 169 0.0 0.0 0.00 0.01 0.01 32 1004.8
20260506005717 73 203 0.0 1.7 0.00 0.01 0.01 32 1004.7
20260506004717 73 194 0.0 0.0 0.00 0.01 0.01 31 1004.5
20260506003717 74 180 0.0 1.7 0.00 0.01 0.01 30 1004.4
20260506002717 75 225 0.0 0.9 0.00 0.01 0.01 30 1004.3
20260506001717 75 203 1.7 4.3 0.00 0.01 0.01 30 1004.3
20260506000717 76 171 0.0 0.0 0.00 0.01 0.01 29 1004.2
20260505235717 76 203 5.2 8.7 0.00 0.01 0.01 28 1004.1
20260505234716 76 203 1.7 4.3 0.00 0.01 0.01 28 1004.0
20260505233737 76 180 0.9 3.5 0.00 0.01 0.01 28 1004.0
20260505232737 77 180 0.9 4.3 0.00 0.01 0.01 28 1003.8
20260505231742 77 203 6.1 14.8 0.00 0.01 0.01 27 1004.0
20260505230757 77 180 1.7 4.3 0.00 0.01 0.01 26 1003.8
20260505225717 77 203 3.5 7.0 0.00 0.01 0.01 26 1003.7
20260505224716 77 203 1.7 5.2 0.00 0.01 0.01 26 1003.4
20260505223717 78 225 0.9 2.6 0.00 0.01 0.01 25 1003.5
20260505222717 78 180 0.0 1.7 0.00 0.01 0.01 26 1003.5
20260505221717 78 203 1.7 5.2 0.00 0.01 0.01 25 1003.5
20260505220716 79 203 3.5 6.1 0.00 0.01 0.01 24 1003.4
20260505215717 79 203 8.7 16.5 0.00 0.01 0.01 24 1003.3
20260505214737 79 248 1.7 3.5 0.00 0.01 0.01 25 1003.3
20260505213717 79 203 6.1 13.0 0.00 0.01 0.01 24 1003.3
20260505212721 80 203 4.3 13.0 0.00 0.01 0.01 25 1003.2
20260505211717 80 203 5.2 10.4 0.00 0.01 0.01 24 1003.1
20260505210717 81 203 6.1 13.0 0.00 0.01 0.01 24 1003.1
20260505205717 82 203 2.6 5.2 0.00 0.01 0.01 24 1003.0
20260505204717 83 180 6.1 11.3 0.00 0.01 0.01 23 1003.1
20260505203757 83 203 6.1 12.2 0.00 0.01 0.01 24 1003.0
20260505202716 83 225 3.5 7.0 0.00 0.01 0.01 22 1003.1
20260505201716 83 225 7.0 13.9 0.00 0.01 0.01 20 1003.1
20260505200717 83 203 10.4 19.1 0.00 0.01 0.01 17 1003.2
20260505195716 83 225 5.2 8.7 0.00 0.01 0.01 17 1003.3
20260505194756 83 203 5.2 9.6 0.00 0.01 0.01 17 1003.5
20260505193716 83 203 7.0 13.0 0.00 0.01 0.01 18 1003.6
20260505192717 83 225 4.3 10.4 0.00 0.01 0.01 18 1003.7
20260505191716 83 203 7.0 11.3 0.00 0.01 0.01 20 1003.8
20260505190716 83 203 7.8 15.6 0.00 0.01 0.01 20 1004.0
20260505185736 82 203 8.7 26.9 0.00 0.01 0.01 17 1004.1
20260505184716 82 248 7.8 15.6 0.00 0.01 0.01 18 1004.2
20260505183716 83 225 14.8 23.5 0.00 0.01 0.01 17 1004.3
20260505182736 83 293 2.6 7.0 0.00 0.01 0.01 21 1004.2
20260505181736 83 203 11.3 20.0 0.00 0.01 0.01 21 1004.4
20260505180716 82 180 6.1 16.5 0.00 0.01 0.01 26 1004.5
20260505175716 82 203 6.1 11.3 0.00 0.01 0.01 24 1004.7
20260505174716 81 203 6.1 9.6 0.00 0.01 0.01 27 1004.8
20260505173716 81 203 7.8 13.0 0.00 0.01 0.01 26 1005.0
20260505172716 81 225 9.6 19.1 0.00 0.01 0.01 26 1005.1
20260505171716 80 225 4.3 8.7 0.00 0.01 0.01 29 1005.0
20260505170716 81 180 5.2 9.6 0.00 0.01 0.01 27 1005.1
20260505165716 80 203 5.2 8.7 0.00 0.01 0.01 28 1005.1
20260505164736 80 203 7.8 12.2 0.00 0.01 0.01 29 1005.2
20260505163741 80 180 5.2 12.2 0.00 0.01 0.01 31 1005.4
20260505162716 79 180 6.1 13.9 0.00 0.01 0.01 32 1005.7
20260505161716 79 225 6.1 12.2 0.00 0.01 0.01 31 1005.8
20260505160716 78 225 1.7 4.3 0.00 0.01 0.01 33 1005.8
20260505152736 75 248 7.0 10.4 0.00 0.01 0.01 34 1006.4
20260505151716 75 225 9.6 16.5 0.00 0.01 0.01 36 1006.4
20260505150716 74 203 3.5 6.1 0.00 0.01 0.01 39 1006.5
20260505124718 61 203 0.9 4.3 0.00 0.01 0.01 60 1007.0
20260505123718 59 148 0.0 0.0 0.00 0.01 0.01 61 1007.1
20260505122718 58 180 0.0 0.0 0.00 0.01 0.01 65 1007.0
20260505121718 56 181 0.0 0.0 0.00 0.01 0.01 71 1007.1
20260505120718 55 299 0.0 0.0 0.00 0.01 0.01 71 1007.1
20260505115717 55 339 0.0 0.0 0.00 0.01 0.01 71 1007.2
20260505114717 54 12 0.0 0.0 0.00 0.01 0.01 70 1006.8
20260505113718 53 12 0.0 0.0 0.00 0.01 0.01 68 1006.8
20260505112717 53 12 0.0 0.0 0.00 0.01 0.01 67 1006.8
20260505111717 52 12 0.0 0.0 0.00 0.01 0.01 67 1006.6
20260505110717 52 12 0.0 0.0 0.01 0.01 0.01 66 1006.7
20260505101717 53 12 0.0 0.0 0.01 0.01 0.01 64 1006.5
20260505100737 53 12 0.0 0.0 0.00 0.00 0.00 64 1006.2
20260505095737 54 12 0.0 0.0 0.00 0.00 0.00 64 1006.0
20260505094717 54 12 0.0 0.0 0.00 0.00 0.00 64 1006.0
20260505093717 54 34 0.0 0.0 0.00 0.00 0.00 65 1006.0
20260505092718 54 30 0.0 0.0 0.00 0.00 0.00 64 1006.4
20260505091717 54 153 0.0 0.0 0.00 0.00 0.00 63 1006.3
20260505090717 53 203 0.9 2.6 0.00 0.00 0.00 62 1006.9
20260505085717 53 203 1.7 4.3 0.00 0.00 0.00 61 1006.9
20260505084737 51 203 2.6 4.3 0.00 0.00 0.00 60 1006.9
20260505083737 52 232 0.0 0.0 0.00 0.00 0.00 59 1006.4
20260505082717 52 231 0.0 0.0 0.00 0.00 0.00 58 1006.2
20260505081717 52 231 0.0 0.0 0.00 0.00 0.00 56 1006.2
20260505080717 53 231 0.0 0.0 0.00 0.00 0.00 56 1006.1
20260505075717 53 231 0.0 0.0 0.00 0.00 0.00 55 1006.0
20260505074717 54 232 0.0 0.0 0.00 0.00 0.00 55 1006.0
20260505073717 54 231 0.0 0.0 0.00 0.00 0.00 53 1006.1
20260505072717 55 230 0.0 0.0 0.00 0.00 0.00 53 1006.2
20260505071717 55 229 0.0 0.0 0.00 0.00 0.00 51 1006.1
20260505070717 55 229 0.0 0.0 0.00 0.00 0.00 51 1006.1
20260505065717 55 229 0.0 0.0 0.00 0.00 0.00 51 1006.1
20260505064717 55 223 0.0 0.0 0.00 0.00 0.00 51 1006.1
20260505063717 54 224 0.0 0.0 0.00 0.00 0.00 53 1006.1
20260505062717 53 232 0.0 0.0 0.00 0.00 0.00 54 1006.2
20260505061717 53 223 0.0 0.0 0.00 0.00 0.00 55 1006.3
20260505060737 53 223 0.0 0.0 0.00 0.00 0.00 55 1006.2
20260505055716 52 248 0.0 1.7 0.00 0.00 0.00 56 1006.3
20260505054717 52 240 0.0 0.0 0.00 0.00 0.00 57 1006.2
20260505053717 51 240 0.0 0.0 0.00 0.00 0.00 58 1006.2
20260505052717 51 240 0.0 3.5 0.00 0.00 0.00 58 1006.3
20260505051716 51 265 0.0 0.0 0.00 0.00 0.00 58 1006.2
20260505050716 51 265 0.0 0.0 0.00 0.00 0.00 57 1006.1